Date String (YYYY-MM-DD hh:mm:ss) UTC,Instrument flags,Ambient pressure (hPa),Sample flow (lpm),Bypass flow (lpm),Sample temperature (°C),Ambient temperature (°C),ASC tube jacket temperature (°C),LED temperature (°C),Box temperature (°C),Sample RH (%),Span deviation,Mass concentration (μg/m³),Mass concentration (μg/m³),Mass concentration (μg/m³)
DateTimeUTC,F1_M11,P_M11,Q1_M11,Q2_M11,T1_M11,T2_M11,T3_M11,T4_M11,T5_M11,U1_M11,ZSPAN_M11,X0_M11,X2_M11,X1_M11
2022-01-29 00:00:00,,0832.2,5.00,0.00,27.0,26.3,00.0,35.9,28.8,06.1,0000.0,0006.00,0002.62,0002.02
2022-01-29 00:01:00,,0832.2,4.99,0.00,27.0,26.3,00.0,35.9,28.8,06.0,0000.0,0005.46,0002.62,0002.04
2022-01-29 00:02:00,,0832.1,5.01,0.00,27.0,26.3,00.0,35.9,28.8,06.0,0000.0,0005.16,0002.63,0002.05
2022-01-29 00:03:00,,0832.1,5.00,0.00,27.0,26.3,00.0,35.9,28.8,06.0,0000.0,0006.54,0002.63,0002.06
2022-01-29 00:04:00,,0832.1,4.99,0.00,27.0,26.3,00.0,35.9,28.8,06.0,0000.0,0006.48,0002.60,0002.05
2022-01-29 00:05:00,,0832.1,5.01,0.00,27.0,26.2,00.0,35.9,28.8,06.0,0000.0,0006.61,0002.60,0002.03
2022-01-29 00:06:00,,0832.2,4.99,0.00,27.0,26.3,00.0,35.9,28.8,06.0,0000.0,0006.51,0002.59,0002.03
2022-01-29 00:07:00,,0832.1,4.99,0.00,27.0,26.2,00.0,35.9,28.8,06.0,0000.0,0006.31,0002.53,0002.01
2022-01-29 00:08:00,,0832.1,5.01,0.00,27.0,26.2,00.0,35.9,28.8,06.0,0000.0,0006.17,0002.52,0001.99
2022-01-29 00:09:00,,0832.2,4.99,0.00,27.0,26.2,00.0,35.9,28.8,05.9,0000.0,0006.50,0002.54,0001.97
2022-01-29 00:10:00,,0832.1,4.99,0.00,26.9,26.2,00.0,35.9,28.7,05.9,0000.0,0006.51,0002.54,0001.96
2022-01-29 00:11:00,,0832.1,5.01,0.00,26.9,26.2,00.0,35.9,28.7,06.0,0000.0,0006.40,0002.52,0001.95
2022-01-29 00:12:00,,0832.1,5.00,0.00,26.9,26.2,00.0,35.9,28.7,06.0,0000.0,0006.41,0002.51,0001.95
2022-01-29 00:13:00,,0832.1,5.00,0.00,26.9,26.2,00.0,35.9,28.6,06.0,0000.0,0006.10,0002.49,0001.95
2022-01-29 00:14:00,,0832.2,5.00,0.00,26.9,26.2,00.0,35.9,28.6,05.9,0000.0,0004.63,0002.52,0001.94
2022-01-29 00:15:00,,0832.1,5.02,0.00,26.9,26.1,00.0,35.9,28.6,05.9,0000.0,0004.45,0002.50,0001.94
2022-01-29 00:16:00,,0832.2,4.99,0.00,26.9,26.1,00.0,35.9,28.6,05.9,0000.0,0004.44,0002.49,0001.93
2022-01-29 00:17:00,,0832.1,4.99,0.00,26.9,26.1,00.0,35.9,28.6,05.9,0000.0,0004.43,0002.47,0001.91
2022-01-29 00:18:00,,0832.1,5.01,0.00,26.9,26.1,00.0,35.9,28.6,05.9,0000.0,0004.94,0002.49,0001.89
2022-01-29 00:19:00,,0832.1,5.00,0.00,26.9,26.1,00.0,35.9,28.6,05.9,0000.0,0005.42,0002.44,0001.87
2022-01-29 00:20:00,,0832.1,5.00,0.00,26.8,26.1,00.0,35.8,28.6,06.1,0000.0,0005.08,0002.41,0001.88
2022-01-29 00:21:00,,0832.1,5.00,0.00,26.8,26.1,00.0,35.8,28.6,06.1,0000.0,0005.25,0002.42,0001.88
2022-01-29 00:22:00,,0832.1,5.00,0.00,26.8,26.1,00.0,35.8,28.6,06.1,0000.0,0005.71,0002.49,0001.90
2022-01-29 00:23:00,,0832.1,5.00,0.00,26.8,26.0,00.0,35.8,28.5,06.1,0000.0,0006.36,0002.54,0001.91
2022-01-29 00:24:00,,0832.2,5.01,0.00,26.8,26.0,00.0,35.8,28.5,06.1,0000.0,0006.24,0002.54,0001.90
2022-01-29 00:25:00,,0832.2,5.00,0.00,26.8,26.0,00.0,35.8,28.5,06.1,0000.0,0006.19,0002.50,0001.91
2022-01-29 00:26:00,,0832.2,4.99,0.00,26.7,26.0,00.0,35.8,28.5,06.2,0000.0,0006.28,0002.53,0001.93
2022-01-29 00:27:00,,0832.2,5.00,0.00,26.7,26.0,00.0,35.8,28.5,06.2,0000.0,0006.23,0002.52,0001.96
2022-01-29 00:28:00,,0832.2,5.00,0.00,26.7,26.0,00.0,35.7,28.5,06.2,0000.0,0006.78,0002.55,0001.99
2022-01-29 00:29:00,,0832.2,5.01,0.00,26.7,26.0,00.0,35.7,28.5,06.2,0000.0,0006.80,0002.57,0002.02
2022-01-29 00:30:00,,0832.2,5.00,0.00,26.7,25.9,00.0,35.7,28.5,06.1,0000.0,0006.64,0002.62,0002.03
2022-01-29 00:31:00,,0832.2,4.99,0.00,26.7,26.0,00.0,35.7,28.5,06.0,0000.0,0006.62,0002.61,0002.03
2022-01-29 00:32:00,,0832.2,5.00,0.00,26.7,25.9,00.0,35.7,28.5,05.9,0000.0,0007.26,0002.62,0002.01
2022-01-29 00:33:00,,0832.2,5.01,0.00,26.7,25.9,00.0,35.7,28.5,05.9,0000.0,0007.26,0002.56,0002.00
2022-01-29 00:34:00,,0832.2,4.99,0.00,26.7,25.9,00.0,35.7,28.5,05.9,0000.0,0006.93,0002.56,0002.00
2022-01-29 00:35:00,,0832.2,5.00,0.00,26.7,25.9,00.0,35.7,28.4,06.1,0000.0,0007.04,0002.60,0002.01
2022-01-29 00:36:00,,0832.2,5.00,0.00,26.7,25.9,00.0,35.7,28.4,06.2,0000.0,0007.13,0002.66,0002.04
2022-01-29 00:37:00,,0832.2,5.02,0.00,26.6,25.9,00.0,35.7,28.4,06.1,0000.0,0007.44,0002.68,0002.04
2022-01-29 00:38:00,,0832.2,5.00,0.00,26.6,25.9,00.0,35.6,28.4,06.0,0000.0,0007.49,0002.70,0002.03
2022-01-29 00:39:00,,0832.2,5.00,0.00,26.6,25.9,00.0,35.6,28.4,05.9,0000.0,0007.29,0002.65,0002.01
2022-01-29 00:40:00,,0832.1,4.99,0.00,26.6,25.8,00.0,35.6,28.3,05.8,0000.0,0007.25,0002.58,0001.98
2022-01-29 00:41:00,,0832.1,5.00,0.00,26.6,25.8,00.0,35.6,28.3,05.8,0000.0,0006.52,0002.53,0001.97
2022-01-29 00:42:00,,0832.1,5.01,0.00,26.6,25.8,00.0,35.6,28.3,05.8,0000.0,0006.50,0002.53,0001.95
2022-01-29 00:43:00,,0832.1,4.99,0.00,26.6,25.8,00.0,35.6,28.3,06.0,0000.0,0005.89,0002.51,0001.96
2022-01-29 00:44:00,,0832.1,5.00,0.00,26.5,25.8,00.0,35.6,28.3,05.9,0000.0,0005.57,0002.51,0001.97
2022-01-29 00:45:00,,0832.1,5.00,0.00,26.5,25.8,00.0,35.6,28.3,05.9,0000.0,0006.38,0002.48,0001.97
2022-01-29 00:46:00,,0832.1,5.00,0.00,26.5,25.7,00.0,35.6,28.2,05.9,0000.0,0006.29,0002.42,0001.95
2022-01-29 00:47:00,,0832.1,5.00,0.00,26.5,25.7,00.0,35.5,28.2,06.0,0000.0,0006.25,0002.39,0001.93
2022-01-29 00:48:00,,0832.1,5.00,0.00,26.5,25.7,00.0,35.5,28.2,05.9,0000.0,0005.86,0002.34,0001.91
2022-01-29 00:49:00,,0832.1,5.02,0.00,26.4,25.7,00.0,35.5,28.2,05.9,0000.0,0005.82,0002.34,0001.92
2022-01-29 00:50:00,,0832.1,5.00,0.00,26.4,25.6,00.0,35.5,28.2,05.9,0000.0,0005.44,0002.35,0001.93
2022-01-29 00:51:00,,0832.1,5.00,0.00,26.4,25.6,00.0,35.5,28.1,05.9,0000.0,0005.21,0002.38,0001.94
2022-01-29 00:52:00,,0832.1,5.00,0.00,26.4,25.6,00.0,35.5,28.1,06.0,0000.0,0005.27,0002.42,0001.95
2022-01-29 00:53:00,,0832.2,4.99,0.00,26.4,25.6,00.0,35.4,28.1,06.0,0000.0,0005.39,0002.47,0001.98
2022-01-29 00:54:00,,0832.1,5.01,0.00,26.3,25.6,00.0,35.4,28.1,06.0,0000.0,0005.38,0002.51,0002.01
2022-01-29 00:55:00,,0832.1,5.00,0.00,26.3,25.6,00.0,35.4,28.1,06.0,0000.0,0005.32,0002.55,0002.02
2022-01-29 00:56:00,,0832.0,5.00,0.00,26.3,25.5,00.0,35.4,28.1,06.0,0000.0,0006.70,0002.56,0002.01
2022-01-29 00:57:00,,0832.1,5.00,0.00,26.3,25.5,00.0,35.4,28.0,05.9,0000.0,0006.76,0002.56,0002.01
2022-01-29 00:58:00,,0832.1,5.00,0.00,26.3,25.5,00.0,35.4,28.0,05.9,0000.0,0006.74,0002.56,0002.00
2022-01-29 00:59:00,,0832.1,5.00,0.00,26.3,25.5,00.0,35.3,28.0,05.9,0000.0,0006.68,0002.53,0002.00
